15 daagse weersverwachting Trieste (IT)

  • Overzicht
  • Per uur
  • 15 dagen
  • Extra
  • Vergelijk
  • Kaarten
  • Dagkaart
  • Meer »
  • Info
  • Statistieken
  • Directe link
    Temp 6h Neerslag Wind  
 05:38     20:46    Daglengte: 15:08 Vandaag
20:00
26°
0.6 mm
1
 05:39     20:45    Daglengte: 15:06 Morgen
02:00
22°
3.9 mm
2
warningclass
08:00
23°
1.6 mm
1
14:00
25°
 
3
20:00
24°
 
1
 05:40     20:44    Daglengte: 15:04 Maandag 23 Jul
02:00
21°
1.9 mm
2
warningclass
08:00
22°
1.7 mm
3
14:00
27°
 
4
20:00
25°
 
2
 05:41     20:43    Daglengte: 15:02 Dinsdag 24 Jul
02:00
22°
 
2
08:00
24°
 
3
Locatie info
Region: Friuli Venezia Giulia
Latitude: 45.6433°N
Longitude: 13.7903°E
64 masl
Temp/Neerslag /Baro Onweer/Dauwpunt
    Temp Baro 1h Neerslag Dauwpunt Wind UV Bewolking  
 05:38     20:46    Daglengte: 15:08 Vandaag
16:00
27°
1010.3 hPa
48%
21.1°
2
Windvlaag: 1.8 km/h
31%
17:00
27°
1010.2 hPa 0.6 mm
81%
21.5°
2
Windvlaag: 1.2 km/h
40% warningclass
18:00
27°
1010.0 hPa
44%
20.7°
2
Windvlaag: 1 km/h
42%
19:00
26°
1009.6 hPa
34%
20.3°
2
Windvlaag: 0.3 km/h
30%
20:00
26°
1009.4 hPa
22%
20.7°
1
Windvlaag: -0.5 km/h
30%
21:00
25°
1009.3 hPa
16%
21.3°
2
Windvlaag: -0.3 km/h
37%
22:00
24°
1009.6 hPa
17%
21.0°
2
Windvlaag: 0.3 km/h
59%
23:00
23°
1009.5 hPa
18%
20.9°
2
Windvlaag: 1.5 km/h
32%
 05:39     20:45    Daglengte: 15:06 Morgen
00:00
23°
1009.4 hPa
24%
20.5°
2
Windvlaag: 1.5 km/h
51%
01:00
22°
1009.6 hPa 1.4 mm
62%
19.6°
2
Windvlaag: 0.8 km/h
69% warningclass
02:00
22°
1009.6 hPa 2.5 mm
24%
19.4°
2
Windvlaag: 0.6 km/h
61% warningclass
03:00
21°
1009.4 hPa
70%
19.1°
3
Windvlaag: 0.1 km/h
42%
04:00
21°
1008.5 hPa 1.6 mm
82%
18.9°
3
Windvlaag: 0.8 km/h
60%
05:00
21°
1008.4 hPa
34%
18.8°
3
Windvlaag: 0.9 km/h
38%
06:00
21°
1008.3 hPa
25%
18.6°
3
Windvlaag: 0.7 km/h
52%
07:00
22°
1008.4 hPa
25%
19.1°
2
Windvlaag: 0.5 km/h
49%
08:00
23°
1008.5 hPa
26%
19.4°
1
Windvlaag: 0.3 km/h
69%
09:00
24°
1008.7 hPa
25%
19.6°
1
Windvlaag: 0.4 km/h
61%
10:00
24°
1008.7 hPa
33%
20.0°
1
Windvlaag: 0.8 km/h
35%
11:00
25°
1008.8 hPa
65%
20.0°
2
Windvlaag: 0.1 km/h
27%
12:00
25°
1008.9 hPa
18%
20.5°
3
Windvlaag: 0.1 km/h
26%
13:00
25°
1009.0 hPa
26%
21.0°
3
Windvlaag: 0.2 km/h
27%
14:00
25°
1008.8 hPa
73%
20.8°
3
Windvlaag: 0.4 km/h
26%
15:00
25°
1008.6 hPa
75%
20.9°
2
Windvlaag: 0.2 km/h
26%
16:00
25°
1008.5 hPa
75%
20.5°
2
Windvlaag: 0.1 km/h
49%
17:00
25°
1008.5 hPa
37%
20.4°
2
Windvlaag: 0.1 km/h
43%
18:00
25°
1008.3 hPa
75%
20.2°
1
Windvlaag: 0.1 km/h
25%
19:00
24°
1008.4 hPa
75%
20.3°
1
Windvlaag: 0.1 km/h
44%
20:00
24°
1008.5 hPa
17%
20.2°
1
Windvlaag: -0.3 km/h
44%
21:00
24°
1008.9 hPa
14%
20.2°
1
Windvlaag: -0.4 km/h
36%
22:00
23°
1009.1 hPa
15%
20.4°
1
Windvlaag: 0.2 km/h
47%
23:00
23°
1009.2 hPa
14%
20.2°
1
Windvlaag: 0.3 km/h
49%
 05:40     20:44    Daglengte: 15:04 Maandag 23 Jul
00:00
22°
1009.3 hPa
23%
20.0°
2
Windvlaag: 0.4 km/h
55%
01:00
22°
1009.2 hPa
30%
19.8°
2
Windvlaag: 0.6 km/h
64%
02:00
21°
1008.9 hPa 1.9 mm
18%
18.7°
2
Windvlaag: 0.5 km/h
64% warningclass
03:00
21°
1008.5 hPa 1.7 mm
14%
18.6°
2
Windvlaag: 0.4 km/h
61% warningclass
04:00
21°
1008.2 hPa
14%
18.6°
2
Windvlaag: 0.4 km/h
78%
05:00
21°
1008.0 hPa
22%
19.0°
2
Windvlaag: 0.4 km/h
80%
06:00
21°
1008.0 hPa
26%
18.3°
2
Windvlaag: 0.4 km/h
82%
07:00
21°
1008.3 hPa
36%
17.8°
3
Windvlaag: 0.5 km/h
73%
08:00
22°
1008.5 hPa
70%
18.0°
3
Windvlaag: 0.7 km/h
69%
09:00
23°
1008.9 hPa
33%
18.2°
2
Windvlaag: 0.3 km/h
80%
10:00
23°
1009.2 hPa
79%
18.3°
2
Windvlaag: 0.1 km/h
82%
11:00
24°
1009.8 hPa
39%
17.9°
2
Windvlaag: -0.6 km/h
47%
12:00
25°
1009.7 hPa
22%
19.9°
3
Windvlaag: -0.7 km/h
17%
13:00
26°
1009.5 hPa
21%
20.9°
4
Windvlaag: -1.9 km/h
7%
14:00
27°
1009.3 hPa
22%
21.4°
4
Windvlaag: -2.1 km/h
22%
15:00
27°
1009.3 hPa
21%
20.7°
4
Windvlaag: -1.7 km/h
36%
16:00
27°
1009.3 hPa
23%
20.8°
3
Windvlaag: -1.8 km/h
24%
17:00
27°
1009.4 hPa
67%
20.7°
3
Windvlaag: -2 km/h
20%
18:00
26°
1009.7 hPa
33%
21.0°
2
Windvlaag: -1.8 km/h
51%
19:00
25°
1009.9 hPa
25%
20.7°
2
Windvlaag: -1.6 km/h
20%
20:00
25°
1010.4 hPa
63%
20.8°
2
Windvlaag: -1.5 km/h
9%
21:00
24°
1011.2 hPa
76%
21.0°
2
Windvlaag: -0.9 km/h
10%
22:00
24°
1011.7 hPa
29%
21.4°
2
Windvlaag: 0 km/h
0%
23:00
23°
1011.9 hPa
25%
20.9°
2
Windvlaag: 0.3 km/h
1%
 05:41     20:43    Daglengte: 15:02 Dinsdag 24 Jul
00:00
23°
1012.0 hPa
21%
17.7°
3
Windvlaag: 0.1 km/h
2%
01:00
22°
1012.1 hPa
21%
16.0°
3
Windvlaag: 0.5 km/h
4%
02:00
22°
1011.9 hPa
21%
16.1°
2
Windvlaag: 0.7 km/h
2%
03:00
22°
1011.6 hPa
22%
16.2°
3
Windvlaag: 0.8 km/h
0%
04:00
21°
1011.6 hPa
21%
16.3°
2
Windvlaag: 0.7 km/h
0%
05:00
21°
1011.8 hPa
21%
16.6°
3
Windvlaag: 0.6 km/h
0%
06:00
21°
1012.0 hPa
21%
16.3°
3
Windvlaag: 0.6 km/h
0%
07:00
22°
1012.3 hPa
21%
15.9°
3
Windvlaag: -0.2 km/h
0%
08:00
24°
1012.5 hPa
21%
16.4°
3
Windvlaag: 0.3 km/h
0%
09:00
26°
1012.4 hPa
21%
17.6°
3
Windvlaag: 10.9 km/h
4%
10:00
27°
1012.3 hPa
21%
18.5°
3
Windvlaag: 8.4 km/h
8%
11:00
28°
1012.2 hPa
21%
19.1°
4
Windvlaag: 6.5 km/h
13%
12:00
28°
1012.0 hPa
21%
19.8°
3
Windvlaag: 5.1 km/h
17%
13:00
29°
1011.7 hPa
21%
20.4°
3
Windvlaag: 5.1 km/h
21%
14:00
29°
1011.5 hPa
22%
20.5°
3
Windvlaag: 0.6 km/h
36%
15:00
27°
1011.1 hPa   20.6°
3
Windvlaag: 0 km/h
43%
Temp/Neerslag /Baro Onweer/Dauwpunt
    Temp Baro Neerslag Dauwpunt Wind Bewolking  
 05:38     20:46    Daglengte: 15:08 Vandaag
17:00
27°
1010.2 hPa 0.6 mm 21.5°
2
40% warningclass
20:00
26°
1009.4 hPa   20.7°
1
30%
23:00
23°
1009.5 hPa   20.9°
2
32%
 05:39     20:45    Daglengte: 15:06 Morgen
02:00
22°
1009.6 hPa 3.9 mm 19.4°
2
61% warningclass
05:00
21°
1008.4 hPa 1.6 mm 18.8°
3
38%
08:00
23°
1008.5 hPa   19.4°
1
69%
11:00
25°
1008.8 hPa   20.0°
2
27%
14:00
25°
1008.8 hPa   20.8°
3
26%
17:00
25°
1008.5 hPa   20.4°
2
43%
20:00
24°
1008.5 hPa   20.2°
1
44%
23:00
23°
1009.2 hPa   20.2°
1
49%
 05:40     20:44    Daglengte: 15:04 Maandag 23 Jul
02:00
21°
1008.9 hPa 1.9 mm 18.7°
2
64% warningclass
05:00
21°
1008.0 hPa 1.7 mm 19.0°
2
80%
08:00
22°
1008.5 hPa   18.0°
3
69%
11:00
24°
1009.8 hPa   17.9°
2
47%
14:00
27°
1009.3 hPa   21.4°
4
22%
17:00
27°
1009.4 hPa   20.7°
3
20%
20:00
25°
1010.4 hPa   20.8°
2
9%
23:00
23°
1011.9 hPa   20.9°
2
1%
 05:41     20:43    Daglengte: 15:02 Dinsdag 24 Jul
02:00
22°
1011.9 hPa   16.1°
2
2%
05:00
21°
1011.8 hPa   16.6°
3
0%
08:00
24°
1012.5 hPa   16.4°
3
0%
11:00
28°
1012.2 hPa   19.1°
4
13%
14:00
29°
1011.5 hPa   20.5°
3
36%
17:00
27°
1010.8 hPa   20.5°
2
33%
20:00
26°
1010.5 hPa   20.8°
1
27%
23:00
24°
1010.9 hPa   19.8°
2
19%
 05:42     20:41    Daglengte: 14:59 Woensdag 25 Jul
02:00
23°
1011.2 hPa   18.8°
4
10%
05:00
24°
1011.2 hPa   18.4°
3
6%
08:00
25°
1011.4 hPa   18.0°
3
2%
11:00
27°
1011.2 hPa   19.4°
3
17%
14:00
28°
1010.9 hPa   20.6°
4
32%
17:00
27°
1010.6 hPa   20.4°
2
38%
20:00
26°
1010.4 hPa 0.3 mm 20.3°
1
43%
23:00
25°
1011.0 hPa   19.1°
2
25%
 05:43     20:40    Daglengte: 14:57 Donderdag 26 Jul
02:00
23°
1011.5 hPa   18.0°
4
8%
05:00
24°
1011.6 hPa   18.4°
3
4%
08:00
25°
1011.8 hPa   18.9°
2
0%
11:00
27°
1011.7 hPa   20.0°
4
23%
14:00
28°
1011.4 hPa   21.0°
5
45%
17:00
28°
1011.4 hPa   20.3°
4
44%
20:00
27°
1011.4 hPa   19.9°
2
43%
23:00
25°
1011.9 hPa   19.6°
3
23%
 05:44     20:39    Daglengte: 14:55 Vrijdag 27 Jul
02:00
23°
1012.4 hPa   19.2°
4
2%
05:00
24°
1012.5 hPa   18.7°
4
1%
08:00
25°
1012.7 hPa   18.4°
3
0%
11:00
27°
1012.3 hPa   19.6°
3
19%
14:00
29°
1011.9 hPa   20.5°
2
38%
17:00
28°
1011.8 hPa   18.8°
1
22%
20:00
27°
1011.8 hPa   17.0°
0
6%
23:00
25°
1012.1 hPa   19.1°
2
6%
 05:45     20:38    Daglengte: 14:53 Zaterdag 28 Jul
02:00
23°
1012.4 hPa   20.2°
3
6%
05:00
24°
1012.4 hPa   19.9°
3
6%
08:00
25°
1012.6 hPa   19.7°
2
6%
11:00
26°
1012.7 hPa   20.1°
2
39%
14:00
27°
1012.8 hPa   20.4°
2
72%
20:00
27°
1012.0 hPa   19.5°
1
24%
 05:46     20:37    Daglengte: 14:51 Zondag 29 Jul
02:00
23°
1011.9 hPa   22.0°
2
19%
08:00
26°
1011.6 hPa   20.6°
2
76%
14:00
29°
1011.3 hPa   21.7°
2
78%
20:00
28°
1010.1 hPa   23.0°
1
92%
 05:48     20:36    Daglengte: 14:48 Maandag 30 Jul
02:00
25°
1009.8 hPa   21.3°
3
32%
08:00
26°
1009.3 hPa   20.8°
2
13%
14:00
30°
1007.9 hPa 0.6 mm 21.7°
4
44%
20:00
27°
1007.1 hPa 0.2 mm 22.8°
1
89%
 05:49     20:34    Daglengte: 14:45 Dinsdag 31 Jul
02:00
24°
1007.1 hPa 0.3 mm 22.2°
1
91%
08:00
25°
1010.5 hPa   18.9°
2
1%
14:00
32°
1012.3 hPa 0.6 mm 20.0°
2
17%
20:00
28°
1012.4 hPa 1.8 mm 22.8°
1
31%
 05:50     20:33    Daglengte: 14:43 Woensdag 01 Aug
02:00
23°
1013.7 hPa 1.0 mm 19.9°
2
39%
08:00
25°
1014.0 hPa 0.3 mm 20.5°
2
18%
14:00
33°
1013.5 hPa 0.9 mm 19.8°
1
17%
20:00
28°
1013.7 hPa 1.5 mm 22.5°
1
32%
 05:51     20:32    Daglengte: 14:41 Donderdag 02 Aug
02:00
23°
1014.9 hPa 0.7 mm 19.5°
2
32%
08:00
25°
1015.2 hPa 0.2 mm 20.5°
2
19%
14:00
33°
1014.6 hPa 0.6 mm 19.5°
1
16%
20:00
28°
1014.4 hPa 1.1 mm 22.4°
0
32%
 05:52     20:30    Daglengte: 14:38 Vrijdag 03 Aug
02:00
23°
1015.3 hPa 0.3 mm 19.6°
2
32%
08:00
25°
1015.3 hPa 0.3 mm 20.4°
2
24%
14:00
32°
1014.3 hPa 0.6 mm 19.8°
1
21%
20:00
28°
1014.1 hPa 1.0 mm 22.0°
1
34%
 05:53     20:29    Daglengte: 14:36 Zaterdag 04 Aug
02:00
23°
1015.1 hPa 0.5 mm 19.5°
2
32%
08:00
24°
1015.3 hPa 0.2 mm 20.0°
3
17%
14:00
32°
1014.2 hPa 0.6 mm 19.3°
2
16%
20:00
27°
1014.0 hPa 0.9 mm 21.6°
1
30%
 05:55     20:28    Daglengte: 14:33 Zondag 05 Aug
02:00
23°
1015.1 hPa 0.2 mm 19.1°
2
25%
08:00
24°
1015.2 hPa   19.3°
3
12%
14:00
32°
1014.2 hPa 0.3 mm 18.3°
2
8%
  CAPE Lifted Index Hail Supercell Tornado SRH 3km CL BTM PRES CL TOP PRES Swiss DWD icon SMHI TS
 05:38     20:46    Daglengte: 15:08 Vandaag
16:00 1787 J/kg -6.2 K 0 % 0 % 0 % 0 m²/s² 0 0 -5.3 2
17:00 1951 J/kg -6.3 K 0 % 0 % 0 % 0 m²/s² 0 0 -5.13 3
18:00 1837 J/kg -5.6 K 0 % 0 % 0 % 0 m²/s² 0 0 -4.22 3
19:00 1219 J/kg -4.1 K 0 % 0 % 0 % 0 m²/s² 0 0 -2.81 3
20:00 1013 J/kg -3.4 K 0 % 0 % 0 % 0 m²/s² 0 0 -1.96 3
21:00 1002 J/kg -3.9 K 0 % 0 % 0 % 0 m²/s² 0 0 -2.16 3
22:00 679 J/kg -3.1 K 0 % 0 % 0 % 0 m²/s² 0 0 -1.09 3
23:00 540 J/kg -3.7 K 0 % 0 % 0 % 0 m²/s² 0 0 -2.14 3
 05:39     20:45    Daglengte: 15:06 Morgen
00:00 668 J/kg -3.0 K 0 % 0 % 0 % 0 m²/s² 0 0 -1.68 3
01:00 829 J/kg -4.4 K 0 % 0 % 0 % 0 m²/s² 0 0 -2.78 3
02:00 731 J/kg -5.1 K 0 % 0 % 0 % 0 m²/s² 0 0 -3.6 3
03:00 597 J/kg -4.6 K 0 % 0 % 0 % 0 m²/s² 0 0 -4.12 3
04:00 221 J/kg -4.2 K 0 % 0 % 0 % 0 m²/s² 0 0 -2.64 80
05:00 154 J/kg -2.8 K 0 % 0 % 0 % 0 m²/s² 0 0 -1.93 3
06:00 478 J/kg -3.5 K 0 % 0 % 0 % 0 m²/s² 0 0 -2.33 3
07:00 846 J/kg -4.3 K 0 % 0 % 0 % 0 m²/s² 0 0 -2.86 3
08:00 1423 J/kg -5.1 K 0 % 0 % 0 % 0 m²/s² 0 0 -4.08 3
09:00 1271 J/kg -4.9 K 0 % 0 % 0 % 0 m²/s² 0 0 -3.28 3
10:00 1034 J/kg -4.2 K 0 % 0 % 0 % 0 m²/s² 0 0 -2.4 3
11:00 900 J/kg -3.7 K 0 % 0 % 0 % 0 m²/s² 0 0 -2.02 3
12:00 631 J/kg -2.6 K 0 % 0 % 0 % 0 m²/s² 0 0 -1.1 3
13:00 554 J/kg -2.2 K 0 % 0 % 0 % 0 m²/s² 0 0 -0.76 3
14:00 622 J/kg -2.3 K 0 % 0 % 0 % 0 m²/s² 0 0 -0.44 3
15:00 582 J/kg -2.3 K 0 % 0 % 0 % 0 m²/s² 0 0 0.04 3
16:00 506 J/kg -2.1 K 0 % 0 % 0 % 0 m²/s² 0 0 0.18 3
17:00 348 J/kg -1.7 K 0 % 0 % 0 % 0 m²/s² 0 0 0.43 3
18:00 130 J/kg -1.1 K 0 % 0 % 0 % 0 m²/s² 0 0 1.96 3
19:00 481 J/kg -2.8 K 0 % 0 % 0 % 0 m²/s² 0 0 -0.37 3
20:00 699 J/kg -2.7 K 0 % 0 % 0 % 0 m²/s² 0 0 -0.75 3
21:00 956 J/kg -3.1 K 0 % 0 % 0 % 0 m²/s² 0 0 -2.29 3
22:00 1355 J/kg -4.3 K 0 % 0 % 0 % 0 m²/s² 0 0 -3.52 3
23:00 1150 J/kg -3.9 K 0 % 0 % 0 % 0 m²/s² 0 0 -3.27 3
 05:40     20:44    Daglengte: 15:04 Maandag 23 Jul
00:00 1177 J/kg -3.8 K 0 % 0 % 0 % 0 m²/s² 0 0 -3.35 3
01:00 951 J/kg -3.2 K 0 % 0 % 0 % 0 m²/s² 0 0 -2.48 3
02:00 1066 J/kg -4.1 K 0 % 0 % 0 % 0 m²/s² 0 0 -3.89 3
03:00 1003 J/kg -4.7 K 0 % 0 % 0 % 0 m²/s² 0 0 -4.01 3
04:00 998 J/kg -4.3 K 0 % 0 % 0 % 0 m²/s² 0 0 -3.76 3
05:00 596 J/kg -2.2 K 0 % 0 % 0 % 0 m²/s² 0 0 -2.11 3
06:00 181 J/kg -0.8 K 0 % 0 % 0 % 0 m²/s² 0 0 -0.8 3
07:00 0 J/kg -0.7 K 0 % 0 % 0 % 0 m²/s² 0 0 -0.52 3
08:00 311 J/kg -1.9 K 0 % 0 % 0 % 0 m²/s² 0 0 -1.9 3
09:00 145 J/kg -1.4 K 0 % 0 % 0 % 0 m²/s² 0 0 -1.4 3
10:00 50 J/kg -1.8 K 0 % 0 % 0 % 0 m²/s² 0 0 -1.41 61
11:00 640 J/kg -2.5 K 0 % 0 % 0 % 0 m²/s² 0 0 -1.87 2
12:00 801 J/kg -2.5 K 0 % 0 % 0 % 0 m²/s² 0 0 -1.48 2
13:00 940 J/kg -2.8 K 0 % 0 % 0 % 0 m²/s² 0 0 -2.08 2
14:00 968 J/kg -2.8 K 0 % 0 % 0 % 0 m²/s² 0 0 -1.72 1
15:00 1055 J/kg -3.5 K 0 % 0 % 0 % 0 m²/s² 0 0 -2.42 3
16:00 1112 J/kg -3.9 K 0 % 0 % 0 % 0 m²/s² 0 0 -2.55 1
17:00 1376 J/kg -4.6 K 0 % 0 % 0 % 0 m²/s² 0 0 -3.43 0
18:00 1519 J/kg -4.4 K 0 % 0 % 0 % 0 m²/s² 0 0 -3.8 1
19:00 955 J/kg -2.8 K 0 % 0 % 0 % 0 m²/s² 0 0 -2.71 1
20:00 763 J/kg -3.7 K 0 % 0 % 0 % 0 m²/s² 0 0 -1.99 2
21:00 0 J/kg -2.0 K 0 % 0 % 0 % 0 m²/s² 0 0 -0.65 1
22:00 0 J/kg -2.2 K 0 % 0 % 0 % 0 m²/s² 0 0 0.08 1
23:00 21 J/kg -1.0 K 0 % 0 % 0 % 0 m²/s² 0 0 1.43 1
 05:41     20:43    Daglengte: 15:02 Dinsdag 24 Jul
00:00 0 J/kg -0.3 K 0 % 0 % 0 % 0 m²/s² 0 0 2.07 1
01:00 0 J/kg -0.5 K 0 % 0 % 0 % 0 m²/s² 0 0 1.18 1
02:00 0 J/kg 0.0 K 0 % 0 % 0 % 0 m²/s² 0 0 1.44 1
03:00 0 J/kg 0.1 K 0 % 0 % 0 % 0 m²/s² 0 0 1.99 1
04:00 0 J/kg -0.2 K 0 % 0 % 0 % 0 m²/s² 0 0 1.42 1
05:00 0 J/kg 0.0 K 0 % 0 % 0 % 0 m²/s² 0 0 1.8 0
06:00 0 J/kg 0.0 K 0 % 0 % 0 % 0 m²/s² 0 0 1.74 0
07:00 0 J/kg 0.7 K 0 % 0 % 0 % 0 m²/s² 0 0 2.83 0
08:00 0 J/kg 0.0 K 0 % 0 % 0 % 0 m²/s² 0 0 1.92 1
09:00 45 J/kg -0.1 K 0 % 0 % 0 % 0 m²/s² 0 0 1.82 1
10:00 122 J/kg -0.5 K 0 % 0 % 0 % 0 m²/s² 0 0 1.18 1
11:00 182 J/kg -0.4 K 0 % 0 % 0 % 0 m²/s² 0 0 1.4 0
12:00 276 J/kg -0.5 K 0 % 0 % 0 % 0 m²/s² 0 0 1.57 0
13:00 410 J/kg -0.9 K 0 % 0 % 0 % 0 m²/s² 0 0 1.38 2
14:00 586 J/kg -1.8 K 0 % 0 % 0 % 0 m²/s² 0 0 -0.69 1
15:00 0 J/kg 0.0 K 0 % 0 % 0 % 0 m²/s² 0 0 13.83
Temp Baro Wind Neerslag
  EWN Forecast EWN WRFDA DWD ICON FMI HIRLAM MET Norway GFS
 05:38     20:46    Daglengte: 15:08 Vandaag
17:00 26.8° 1010.2 hPa 2.4 m/s 0.6 mm 29.4° 1009.8 hPa 4.1 m/s 3.9 mm 26.5° 1010.4 hPa 1.6 m/s -1.7 mm 27.1° 1009.5 hPa 2.9 m/s 0.0 mm 25.6° 1010.3 hPa 2.1 m/s 0.7 mm 28.2° 1010.1 hPa 3.3 m/s
20:00 25.7° 1009.4 hPa 1.4 m/s 0.0 mm 27.9° 1008.8 hPa 2.5 m/s 6.0 mm 25.1° 1010.4 hPa 1.1 m/s 0.0 mm 26.1° 1008.8 hPa 0.2 m/s 0.0 mm 25.3° 1009.4 hPa 1.9 m/s 0.0 mm 24.0° 1009.9 hPa 0.5 m/s
23:00 23.2° 1009.5 hPa 2.5 m/s 0.0 mm 25.0° 1009.1 hPa 4.0 m/s 6.1 mm 22.4° 1010.3 hPa 0.9 m/s 0.0 mm 23.6° 1009.4 hPa 1.6 m/s 0.0 mm 22.6° 1009.4 hPa 2.6 m/s 0.0 mm 19.6° 1010.6 hPa 2.3 m/s
 05:39     20:45    Daglengte: 15:06 Morgen
02:00 21.6° 1009.6 hPa 2.4 m/s 3.9 mm 22.6° 1008.9 hPa 1.8 m/s 8.7 mm 21.3° 1010.3 hPa 1.3 m/s 0.0 mm 21.7° 1008.3 hPa 2.3 m/s 0.0 mm 20.8° 1010.3 hPa 3.1 m/s 6.4 mm 19.6° 1010.3 hPa 2.3 m/s
05:00 21.2° 1008.4 hPa 3.0 m/s 1.6 mm 21.8° 1007.4 hPa 5.4 m/s 16.6 mm 20.2° 1009.9 hPa 1.3 m/s 0.6 mm 21.0° 1007.6 hPa 3.0 m/s 0.0 mm 21.1° 1008.6 hPa 3.0 m/s 7.3 mm 19.9° 1010.0 hPa 1.9 m/s
08:00 22.8° 1008.5 hPa 1.4 m/s 0.0 mm 25.0° 1007.6 hPa 1.4 m/s 19.6 mm 21.5° 1009.9 hPa 0.9 m/s 0.0 mm 23.0° 1007.6 hPa 2.8 m/s 0.0 mm 22.6° 1008.6 hPa 1.1 m/s 0.0 mm 22.7° 1010.5 hPa 1.5 m/s
11:00 24.5° 1008.8 hPa 2.0 m/s 0.0 mm 25.9° 1008.6 hPa 3.1 m/s 19.7 mm 23.4° 1009.8 hPa 1.7 m/s 0.0 mm 24.0° 1007.7 hPa 1.6 m/s 0.0 mm 24.2° 1008.9 hPa 1.9 m/s 0.0 mm 26.6° 1010.6 hPa 0.7 m/s
14:00 25.1° 1008.8 hPa 3.2 m/s 0.0 mm 26.9° 1008.2 hPa 3.3 m/s 19.7 mm 24.6° 1009.5 hPa 2.1 m/s 0.0 mm 25.0° 1007.4 hPa 3.0 m/s 0.0 mm 24.0° 1009.4 hPa 3.4 m/s 0.4 mm 29.2° 1009.9 hPa 2.0 m/s
17:00 24.9° 1008.5 hPa 1.6 m/s 0.0 mm 27.0° 1008.1 hPa 2.8 m/s 19.7 mm 24.9° 1008.8 hPa 1.0 m/s 0.0 mm 24.5° 1006.8 hPa 1.0 m/s 0.0 mm 24.2° 1008.9 hPa 1.6 m/s 0.0 mm 27.4° 1009.8 hPa 2.5 m/s
20:00 24.1° 1008.5 hPa 0.6 m/s 0.0 mm 25.9° 1006.8 hPa 1.3 m/s 19.7 mm 24.0° 1008.9 hPa 0.3 m/s 0.2 mm 23.4° 1006.8 hPa 0.6 m/s 0.0 mm 23.9° 1008.9 hPa 0.3 m/s 0.0 mm 23.7° 1009.7 hPa 0.7 m/s
23:00 22.9° 1009.2 hPa 1.0 m/s 0.0 mm 24.1° 1007.8 hPa 0.5 m/s 20.8 mm 21.9° 1009.5 hPa 0.6 m/s 0.0 mm 22.1° 1007.2 hPa 0.6 m/s 0.0 mm 23.3° 1009.9 hPa 1.4 m/s 0.0 mm 20.7° 1010.8 hPa 1.3 m/s
 05:40     20:44    Daglengte: 15:04 Maandag 23 Jul
02:00 21.5° 1008.9 hPa 1.9 m/s 1.9 mm 23.4° 1007.1 hPa 1.7 m/s 21.8 mm 20.8° 1009.4 hPa 1.1 m/s 0.0 mm 21.0° 1006.3 hPa 2.7 m/s 0.0 mm 22.2° 1010.2 hPa 1.9 m/s 0.6 mm 20.0° 1010.6 hPa 1.7 m/s
05:00 21.0° 1008.0 hPa 1.9 m/s 1.7 mm 20.9° 1006.6 hPa 1.8 m/s 28.6 mm 20.5° 1008.2 hPa 1.3 m/s 0.0 mm 20.1° 1005.9 hPa 3.4 m/s 0.0 mm 22.1° 1009.2 hPa 1.6 m/s 0.8 mm 19.2° 1010.4 hPa 1.6 m/s
08:00 22.1° 1008.5 hPa 2.7 m/s 0.0 mm 22.8° 1006.0 hPa 1.4 m/s 60.4 mm 22.0° 1009.3 hPa 1.8 m/s 0.0 mm 20.4° 1006.2 hPa 2.8 m/s 0.0 mm 22.2° 1010.1 hPa 3.2 m/s 0.0 mm 21.8° 1010.7 hPa 1.9 m/s
11:00 24.3° 1009.8 hPa 2.4 m/s 0.0 mm 23.2° 1006.6 hPa 2.6 m/s 65.2 mm 24.1° 1009.9 hPa 0.7 m/s 0.1 mm 25.0° 1010.9 hPa 2.9 m/s 0.0 mm 26.6° 1011.0 hPa 3.7 m/s
14:00 27.2° 1009.3 hPa 3.7 m/s 0.0 mm 28.7° 1006.2 hPa 5.3 m/s 67.4 mm 28.1° 1009.5 hPa 2.8 m/s 0.0 mm 25.4° 1010.5 hPa 3.8 m/s 0.0 mm 29.3° 1010.9 hPa 2.7 m/s
17:00 26.7° 1009.4 hPa 2.9 m/s 0.0 mm 27.8° 1007.3 hPa 4.8 m/s 69.7 mm 26.5° 1009.7 hPa 2.8 m/s 0.0 mm 26.0° 1010.0 hPa 1.7 m/s 0.0 mm 30.3° 1010.5 hPa 2.0 m/s
20:00 25.1° 1010.4 hPa 2.1 m/s 0.0 mm 24.4° 1009.3 hPa 3.4 m/s 80.6 mm 25.0° 1010.8 hPa 0.5 m/s 0.0 mm 24.9° 1010.6 hPa 2.2 m/s 0.6 mm 24.3° 1011.7 hPa 0.3 m/s
23:00 23.1° 1011.9 hPa 2.4 m/s 0.0 mm 23.1° 1010.4 hPa 3.2 m/s 88.3 mm 22.3° 1012.1 hPa 1.0 m/s 0.1 mm 23.1° 1012.3 hPa 2.6 m/s 0.0 mm 21.0° 1013.7 hPa 1.4 m/s
 05:41     20:43    Daglengte: 15:02 Dinsdag 24 Jul
02:00 22.0° 1011.9 hPa 2.4 m/s 0.0 mm 21.6° 1010.4 hPa 2.1 m/s 88.3 mm 20.1° 1012.0 hPa 1.9 m/s 0.0 mm 22.9° 1012.3 hPa 4.1 m/s 0.0 mm 19.6° 1014.2 hPa 1.8 m/s
05:00 21.3° 1011.8 hPa 3.1 m/s 0.0 mm 21.5° 1010.9 hPa 3.4 m/s 88.3 mm 19.2° 1011.9 hPa 2.2 m/s 0.0 mm 21.9° 1012.0 hPa 3.6 m/s 0.0 mm 18.6° 1014.5 hPa 2.0 m/s
08:00 24.3° 1012.5 hPa 3.3 m/s 0.0 mm 25.0° 1012.0 hPa 3.8 m/s 88.3 mm 23.6° 1012.7 hPa 1.6 m/s 0.0 mm 24.5° 1012.6 hPa 4.0 m/s 0.0 mm 22.4° 1014.3 hPa 1.9 m/s
11:00 27.5° 1012.2 hPa 3.5 m/s 0.0 mm 28.8° 1012.2 hPa 3.6 m/s 88.3 mm 28.9° 1012.4 hPa 2.4 m/s 0.0 mm 26.2° 1012.0 hPa 3.8 m/s 30.1° 1013.6 hPa 1.5 m/s
14:00 28.6° 1011.5 hPa 3.4 m/s 0.0 mm 29.0° 1011.4 hPa 3.8 m/s 88.5 mm 29.9° 1011.5 hPa 2.4 m/s 0.0 mm 28.0° 1011.5 hPa 3.5 m/s 32.5° 1012.3 hPa 1.3 m/s
17:00 27.2° 1010.8 hPa 1.9 m/s 0.0 mm 26.9° 1010.8 hPa 1.8 m/s 30.5° 1011.2 hPa 2.8 m/s 0.0 mm
20:00 26.3° 1010.5 hPa 1.0 m/s 0.0 mm 26.4° 1010.4 hPa 1.0 m/s 25.1° 1011.3 hPa 1.4 m/s 0.0 mm
23:00 24.4° 1010.9 hPa 2.4 m/s 0.0 mm 24.6° 1010.7 hPa 2.5 m/s 21.8° 1012.8 hPa 1.3 m/s 0.0 mm
 05:42     20:41    Daglengte: 14:59 Woensdag 25 Jul
02:00 22.8° 1011.2 hPa 3.9 m/s 0.0 mm 22.9° 1011.0 hPa 4.1 m/s 21.3° 1012.8 hPa 1.7 m/s 0.0 mm
05:00 23.5° 1011.2 hPa 3.3 m/s 0.0 mm 23.8° 1011.1 hPa 3.4 m/s 20.5° 1012.5 hPa 1.7 m/s 0.0 mm
08:00 24.6° 1011.4 hPa 2.6 m/s 0.0 mm 24.7° 1011.2 hPa 2.7 m/s 23.9° 1013.0 hPa 1.7 m/s 0.0 mm
11:00 26.8° 1011.2 hPa 3.1 m/s 0.0 mm 26.3° 1011.0 hPa 3.3 m/s 31.8° 1012.9 hPa 0.5 m/s 0.0 mm
14:00 28.3° 1010.9 hPa 3.8 m/s 0.0 mm 27.9° 1010.8 hPa 3.9 m/s 32.4° 1011.8 hPa 2.2 m/s 0.0 mm
17:00 27.4° 1010.6 hPa 2.5 m/s 0.0 mm 27.1° 1010.5 hPa 2.5 m/s 30.4° 1011.4 hPa 2.0 m/s 0.1 mm
20:00 26.2° 1010.4 hPa 1.0 m/s 0.3 mm 26.3° 1010.3 hPa 1.1 m/s 25.6° 1011.8 hPa 0.0 m/s 0.3 mm
23:00 24.6° 1011.0 hPa 2.4 m/s 0.0 mm 24.8° 1010.8 hPa 2.5 m/s 22.8° 1013.6 hPa 1.9 m/s 0.0 mm
 05:43     20:40    Daglengte: 14:57 Donderdag 26 Jul
02:00 23.1° 1011.5 hPa 3.7 m/s 0.0 mm 23.3° 1011.3 hPa 3.8 m/s 21.4° 1013.7 hPa 2.0 m/s 0.0 mm
05:00 23.9° 1011.6 hPa 2.9 m/s 0.0 mm 24.2° 1011.5 hPa 3.0 m/s 20.5° 1013.8 hPa 2.2 m/s 0.0 mm
08:00 25.0° 1011.8 hPa 2.2 m/s 0.0 mm 25.1° 1011.6 hPa 2.2 m/s 23.9° 1014.3 hPa 2.2 m/s 0.0 mm
11:00 26.8° 1011.7 hPa 3.6 m/s 0.0 mm 26.4° 1011.5 hPa 3.8 m/s 30.8° 1014.1 hPa 1.4 m/s 0.0 mm
14:00 28.2° 1011.4 hPa 5.1 m/s 0.0 mm 27.7° 1011.3 hPa 5.4 m/s 33.1° 1013.1 hPa 1.3 m/s 0.0 mm
17:00 27.5° 1011.4 hPa 3.7 m/s 0.0 mm 27.2° 1011.2 hPa 3.8 m/s 30.5° 1012.7 hPa 2.1 m/s 0.0 mm
20:00 26.7° 1011.4 hPa 2.1 m/s 0.0 mm 26.8° 1011.2 hPa 2.2 m/s 25.8° 1013.3 hPa 1.0 m/s 0.0 mm
23:00 24.8° 1011.9 hPa 3.1 m/s 0.0 mm 25.0° 1011.7 hPa 3.2 m/s 22.9° 1015.2 hPa 1.6 m/s 0.0 mm
 05:44     20:39    Daglengte: 14:55 Vrijdag 27 Jul
02:00 23.1° 1012.4 hPa 4.1 m/s 0.0 mm 23.2° 1012.1 hPa 4.3 m/s 22.0° 1015.1 hPa 2.0 m/s 0.0 mm
05:00 24.0° 1012.5 hPa 3.7 m/s 0.0 mm 24.2° 1012.3 hPa 3.9 m/s 21.2° 1014.7 hPa 2.0 m/s 0.0 mm
08:00 25.2° 1012.7 hPa 3.4 m/s 0.0 mm 25.3° 1012.5 hPa 3.5 m/s 24.4° 1014.7 hPa 1.8 m/s 0.0 mm
11:00 27.3° 1012.3 hPa 2.5 m/s 0.0 mm 26.9° 1012.1 hPa 2.8 m/s 32.6° 1014.3 hPa 0.1 m/s 0.0 mm
14:00 28.7° 1011.9 hPa 2.1 m/s 0.0 mm 28.4° 1011.8 hPa 2.0 m/s 32.3° 1013.1 hPa 3.0 m/s 0.0 mm
17:00 28.1° 1011.8 hPa 1.4 m/s 0.0 mm 27.9° 1011.8 hPa 1.2 m/s 30.5° 1012.6 hPa 3.3 m/s 0.0 mm
20:00 27.2° 1011.8 hPa 0.4 m/s 0.0 mm 27.4° 1011.7 hPa 0.4 m/s 25.4° 1013.0 hPa 0.9 m/s 0.0 mm
23:00 24.8° 1012.1 hPa 1.8 m/s 0.0 mm 24.9° 1012.0 hPa 1.9 m/s 23.2° 1014.1 hPa 1.3 m/s 0.0 mm
 05:45     20:38    Daglengte: 14:53 Zaterdag 28 Jul
02:00 22.5° 1012.4 hPa 3.1 m/s 0.0 mm 22.5° 1012.2 hPa 3.3 m/s 22.6° 1014.1 hPa 1.4 m/s 0.0 mm
05:00 23.5° 1012.4 hPa 2.5 m/s 0.0 mm 23.7° 1012.3 hPa 2.6 m/s 21.6° 1014.0 hPa 1.5 m/s 0.0 mm
08:00 24.9° 1012.6 hPa 1.8 m/s 0.0 mm 24.9° 1012.4 hPa 1.9 m/s 25.2° 1014.3 hPa 1.2 m/s 0.0 mm
11:00 26.3° 1012.7 hPa 1.6 m/s 0.0 mm 25.8° 1012.5 hPa 1.7 m/s 32.7° 1014.3 hPa 0.7 m/s 0.0 mm
14:00 27.2° 1012.8 hPa 1.5 m/s 0.0 mm 26.6° 1012.7 hPa 1.5 m/s 33.8° 1013.4 hPa 2.0 m/s 0.0 mm
20:00 27.1° 1012.0 hPa 0.6 m/s 0.0 mm 27.1° 1011.8 hPa 0.6 m/s 26.5° 1013.8 hPa 1.2 m/s 0.0 mm
 05:46     20:37    Daglengte: 14:51 Zondag 29 Jul
02:00 23.3° 1011.9 hPa 2.2 m/s 0.0 mm 23.3° 1011.6 hPa 2.2 m/s 23.2° 1014.9 hPa 1.8 m/s 0.0 mm
08:00 25.6° 1011.6 hPa 1.6 m/s 0.0 mm 25.6° 1011.3 hPa 1.5 m/s 25.4° 1014.9 hPa 2.2 m/s 0.0 mm
14:00 28.5° 1011.3 hPa 1.7 m/s 0.0 mm 27.8° 1011.1 hPa 1.8 m/s 36.3° 1013.1 hPa 0.7 m/s 0.0 mm
20:00 27.8° 1010.1 hPa 1.3 m/s 0.0 mm 27.8° 1009.9 hPa 1.4 m/s 27.3° 1012.4 hPa 0.7 m/s 0.0 mm
 05:48     20:36    Daglengte: 14:48 Maandag 30 Jul
02:00 24.6° 1009.8 hPa 2.8 m/s 0.0 mm 24.7° 1009.5 hPa 2.9 m/s 23.3° 1012.9 hPa 1.9 m/s 0.0 mm
08:00 26.1° 1009.3 hPa 2.2 m/s 0.0 mm 26.2° 1009.0 hPa 2.2 m/s 25.5° 1012.1 hPa 2.3 m/s 0.0 mm
14:00 29.9° 1007.9 hPa 4.0 m/s 0.4 mm 29.4° 1007.7 hPa 4.2 m/s 35.4° 1010.3 hPa 1.6 m/s 0.4 mm
20:00 27.1° 1007.1 hPa 1.1 m/s 0.2 mm 27.1° 1006.9 hPa 1.1 m/s 27.6° 1009.9 hPa 1.0 m/s 0.2 mm
 05:49     20:34    Daglengte: 14:45 Dinsdag 31 Jul
02:00 24.3° 1007.1 hPa 1.5 m/s 0.2 mm 24.4° 1006.8 hPa 1.4 m/s 23.6° 1010.7 hPa 2.2 m/s 0.2 mm
08:00 25.1° 1010.5 hPa 2.2 m/s 0.0 mm 25.1° 1010.5 hPa 2.2 m/s 0.0 mm
14:00 32.3° 1012.3 hPa 1.6 m/s 0.6 mm
20:00 27.7° 1012.4 hPa 1.0 m/s 1.8 mm
 05:50     20:33    Daglengte: 14:43 Woensdag 01 Aug
02:00 23.3° 1013.7 hPa 2.1 m/s 1.0 mm
08:00 24.6° 1014.0 hPa 2.4 m/s 0.3 mm
14:00 32.5° 1013.5 hPa 1.0 m/s 0.9 mm
20:00 27.7° 1013.7 hPa 0.9 m/s 1.5 mm
 05:51     20:32    Daglengte: 14:41 Donderdag 02 Aug
02:00 22.9° 1014.9 hPa 1.7 m/s 0.7 mm
08:00 24.8° 1015.2 hPa 2.1 m/s 0.2 mm
14:00 32.9° 1014.6 hPa 0.9 m/s 0.6 mm
20:00 27.8° 1014.4 hPa 0.4 m/s 1.1 mm
 05:52     20:30    Daglengte: 14:38 Vrijdag 03 Aug
02:00 23.1° 1015.3 hPa 1.9 m/s 0.3 mm
08:00 24.6° 1015.3 hPa 2.3 m/s 0.3 mm
14:00 32.4° 1014.3 hPa 0.8 m/s 0.6 mm
20:00 27.6° 1014.1 hPa 0.7 m/s 1.0 mm
 05:53     20:29    Daglengte: 14:36 Zaterdag 04 Aug
02:00 23.3° 1015.1 hPa 2.3 m/s 0.5 mm
08:00 24.2° 1015.3 hPa 2.8 m/s 0.2 mm
14:00 31.9° 1014.2 hPa 1.6 m/s 0.6 mm
20:00 27.2° 1014.0 hPa 1.2 m/s 0.9 mm
 05:55     20:28    Daglengte: 14:33 Zondag 05 Aug
02:00 22.9° 1015.1 hPa 2.4 m/s 0.2 mm
08:00 23.7° 1015.2 hPa 2.8 m/s 0.0 mm
14:00 31.6° 1014.2 hPa 1.6 m/s 0.3 mm
FMI Hirlam - 7.5 km EWN WRFDA - 12 km DWD ICON - 7 km GFS - 25 km Basiskaart






























































Updatetijd (Europe/Amsterdam) Resolutie Lengte Stap
FMI Hirlam 13:00, 19:00, 01:00, 07:00 7.5 km 49h 1h
EWN WRFDA 09:30, 15:30, 21:30, 03:30 12 km 73h 1h
DWD ICON 12:45, 18:45, 00:45, 06:45 7 km 75h 1h
GFS 09:15, 15:15, 21:15, 03:15 25 km 237h 3h
30+ mm
25-30 mm
20-25 mm
15-20 mm
10-15 mm
6-10 mm
4-6 mm
2-4 mm
1-2 mm
0.5-1 mm
0.2-0.5 mm
0.1-0.2 mm
30+ mm
25-30 mm
20-25 mm
15-20 mm
10-15 mm
6-10 mm
4-6 mm
2-4 mm
1-2 mm
0.5-1 mm
0.2-0.5 mm
0.1-0.2 mm
Sneeuwval
Natte sneeuw
Hagel
Vorst
30+ mm
25-30 mm
20-25 mm
15-20 mm
10-15 mm
6-10 mm
4-6 mm
2-4 mm
1-2 mm
0.5-1 mm
0.2-0.5 mm
0.1-0.2 mm
Sneeuwval
Natte sneeuw
Hagel
Vorst
Onweer
50 mm
40 mm
30 mm
26 mm
22 mm
18 mm
14 mm
10 mm
9 mm
8 mm
7 mm
6 mm
5 mm
4.5 mm
4 mm
3.5 mm
3 mm
2.5 mm
2 mm
1.5 mm
1 mm
0.8 mm
0.6 mm
0.4 mm
0.2 mm
0.05 mm
35°
30°
25°
20°
15°
10°
-5°
-10°
-15°
-20°
-25°
-30°
-35°
120> km/h
105 km/h
90 km/h
75 km/h
60 km/h
50 km/h
40 km/h
30 km/h
20 km/h
10 km/h
0 km/h
2600 J/kg
2400 J/kg
2200 J/kg
2000 J/kg
1800 J/kg
1600 J/kg
1400 J/kg
1200 J/kg
1000 J/kg
800 J/kg
600 J/kg
400 J/kg
200 J/kg
70 dBZ
65 dBZ
60 dBZ
55 dBZ
50 dBZ
45 dBZ
40 dBZ
35 dBZ
30 dBZ
25 dBZ
20 dBZ
15 dBZ
10 dBZ
5 dBZ
-1 K
-2 K
-3 K
-4 K
-5 K
-6 K
-7 K
-8 K
-9 K
950 m²/s²
900 m²/s²
850 m²/s²
800 m²/s²
750 m²/s²
700 m²/s²
650 m²/s²
600 m²/s²
550 m²/s²
500 m²/s²
450 m²/s²
400 m²/s²
350 m²/s²
300 m²/s²
250 m²/s²
200 m²/s²
150 m²/s²
100 m²/s²
46 m/s
44 m/s
42 m/s
40 m/s
38 m/s
36 m/s
34 m/s
32 m/s
30 m/s
28 m/s
26 m/s
24 m/s
22 m/s
20 m/s
16 m/s
12 m/s
8 m/s
4 m/s
30 m/s
28 m/s
26 m/s
24 m/s
22 m/s
20 m/s
18 m/s
16 m/s
14 m/s
12 m/s
10 m/s
8 m/s
6 m/s
4 m/s
2 m/s
3.0
2.8
2.6
2.4
2.2
2.0
1.8
1.6
1.4
1.2
1.0
0.8
0.6
0.4
0.2
15
14
13
12
11
10
9
8
7
6
5
4
3
2
1
90%
80%
70%
60%
50%
40%
30%
20%
10%
42
40
38
36
34
32
30
28
26
24
22
20
18
16
14
12
90+ cm
80-90 cm
70-80 cm
60-70 cm
50-60 cm
40-50 cm
30-40 cm
20-30 cm
10-20 cm
1-10 cm
Sneeuwval
Natte sneeuw
Regen
>120 mm
115 mm
110 mm
105 mm
100 mm
95 mm
90 mm
85 mm
80 mm
75 mm
70 mm
65 mm
60 mm
55 mm
50 mm
45 mm
45 mm
40 mm
35 mm
30 mm
25 mm
20 mm
15 mm
10 mm
5 mm
0.1 mm
960 hPa
880 hPa
800 hPa
720 hPa
640 hPa
560 hPa
584 gpdm
568 gpdm
552 gpdm
536 gpdm
520 gpdm
504 gpdm
488 gpdm
Extreem zwaar Noodweer Kans op onweer
15% 15% 5% 50% 15%

Dag




Kaart






35°
30°
25°
20°
15°
10°
-5°
-10°
-15°
-20°
-25°
-30°
-35°
120> km/h
105 km/h
90 km/h
75 km/h
60 km/h
50 km/h
40 km/h
30 km/h
20 km/h
10 km/h
0 km/h
Extreem zwaar Noodweer Kans op onweer
15% 15% 5% 50% 15%
>120 mm
115 mm
110 mm
105 mm
100 mm
95 mm
90 mm
85 mm
80 mm
75 mm
70 mm
65 mm
60 mm
55 mm
50 mm
45 mm
45 mm
40 mm
35 mm
30 mm
25 mm
20 mm
15 mm
10 mm
5 mm
0.1 mm
Onweer risico kaarten - De groene en gele kleur geeft de kans op onweer aan binnen 40 km van een punt. Oranje, rood en violet hebben hetzelfde niveau zoals je het ziet op estofex.org waaronder ook de kans op hagel en supercells.

dBZ - dBZ staat voor decibel ten opzichte van Z.

Cape - Convective available potential energy (CAPE), is de totale hoeveelheid energie die een luchtpakketje nodig heeft om zover mogelijk te stijgen in de atmosfeer.

K Index - K-Index wordt berekend door de Vertical Totals (VT) en het verschil tussen de 850 hPa temperatuur en de 700 hPa dauwpuntsdepressie (Tdd 700) bij elkaar op te tellen.

TT Index - Convectie index wordt gebruikt voor het voorspellen van zware buien of onweer.

WRF - The Weather Research and Forecasting (WRF) is een volgende generatie mesoscale numeriek weersvoorspelling systeem ontworpen om zowel de operationele planning als het atmosferisch onderzoek te dienen. WRF is a cooperatie tussen het National Center for Atmospheric Research (NCAR), National Centers for Environmental Prediction (NCEP), Forecast Systems Laboratory (FSL), Air Force Weather Agency (AFWA), Naval Research Laboratory, University of Oklahoma, en de Federal Aviation Administration (FAA). Deze software draait op onze server.

WRFDA - Een meer geavanceerde versie van WRF

Arome - Het 2.5 km Arome model. Verzorgd door het Noors Meteorologisch Instituut.

MET Norway - De proff-default 4km meteorological data is een beste keus selectie van meteorologische modellen gebruikt door met.no die zijn ge´nterpoleerd tot een gemeenschappelijke dataset. Verzorgd door het Noorse Meteorologisch Instituut.

SMHI - Het Hirlam model verzorgd door het Zweeds meteorologisch instituut.

FMI - Het Hirlam model verzorgd door het Fins meteorologisch instituut. Dekking alleen Finland.

GFS - Het Global Forecast Systeem (GFS) is een wereldwijd numerieke weersvoorspelling computermodel, gerund door NOAA.

GEM-GDPS - Het GEM-GDPS is a wereldwijd numeriek weersvoorspelling computermodel verzorgd door het Canadees Meteorologisch Centrum.

Credits/Info: Dank aan Stefan Gofferje van sääkeskus.fi voor enkele formules van GrADS. Info: Wikipedia.

Betrouwbaarheid van de verwachting

NB! 2015-03-29: Rebuilding the accuracy-test!

EWNACC
Day 1 Good forecasts

Dag 1 Tmax

Dag 2 Tmax

Geladen verwachtingen TOP 50

Totaal geladen verwachtingen:
Plaats Latitude Longitude Verwachtingen Plaats Latitude Longitude Verwachtingen